Latest Coastal Weather Observations for Spring Bay

IDT60701

Issued at 12:41 pm EDT Monday 2 February 2015 (issued every 10 minutes, with the page automatically refreshed every 10 minutes)

About coastal observations | Map of coastal stations | Coastal observations for TAS | Marine services | Other Formats
Station Details ID: 092133 Name: SPRING BAY NTC AWS Lat: -42.55 Lon: 147.93 Height: 0.0 m
Data from the previous 72 hours. | See also: Recent months for locations in Tasmania
Date/Time
EDT
Temp

°C
Wind Pressure Rain
since 9am
mm
Weather Cloud Vis
km
Sea
Height
m
Swell
Dir
 
Speed
knots
Gust
knots
hPa Trend Height
m
Period
s
Dir
02/12:30pm 16.8 - - - 1019.1 - - - - - - - - -
02/12:00pm 16.9 - - - 1019.5 - - - - - - - - -
02/11:30am 16.3 - - - 1019.7 - - - - - - - - -
02/11:00am 16.1 - - - 1019.3 - - - - - - - - -
02/10:30am 15.5 - - - 1019.0 - - - - - - - - -
02/10:00am 15.3 - - - 1018.8 - - - - - - - - -
02/09:30am 14.7 - - - 1018.6 - - - - - - - - -
02/09:00am 14.3 - - - 1018.7 - - - - - - - - -
02/08:30am 14.1 - - - 1018.6 - - - - - - - - -
02/08:00am 14.0 - - - 1018.4 - - - - - - - - -
02/07:30am 13.2 - - - 1018.1 - - - - - - - - -
02/07:00am 13.1 - - - 1017.9 - - - - - - - - -
02/06:30am 13.2 - - - 1017.4 - - - - - - - - -
02/06:00am 13.2 - - - 1017.3 - - - - - - - - -
02/05:30am 13.0 - - - 1017.0 - - - - - - - - -
02/05:00am 12.9 - - - 1017.0 - - - - - - - - -
02/04:30am 13.0 - - - 1017.0 - - - - - - - - -
02/04:00am 12.9 - - - 1017.0 - - - - - - - - -
02/03:30am 12.9 - - - 1017.0 - - - - - - - - -
02/03:00am 12.8 - - - 1017.0 - - - - - - - - -
02/02:30am 12.5 - - - 1017.3 - - - - - - - - -
02/02:00am 13.0 - - - 1017.3 - - - - - - - - -
02/01:30am 12.5 - - - 1017.3 - - - - - - - - -
02/01:00am 12.7 - - - 1017.6 - - - - - - - - -
02/12:30am 13.1 - - - 1017.6 - - - - - - - - -
02/12:00am 13.1 - - - 1017.6 - - - - - - - - -
 
Date/Time
EDT
Temp

°C
Wind Pressure Rain
since 9am
mm
Weather Cloud Vis
km
Sea
Height
m
Swell
Dir
 
Speed
knots
Gust
knots
hPa Trend Height
m
Period
s
Dir
01/11:30pm 13.4 - - - 1017.7 - - - - - - - - -
01/11:00pm 13.8 - - - 1017.7 - - - - - - - - -
01/10:30pm 14.0 - - - 1017.7 - - - - - - - - -
01/10:00pm 13.9 - - - 1017.7 - - - - - - - - -
01/09:30pm 14.3 - - - 1017.4 - - - - - - - - -
01/09:00pm 14.3 - - - 1017.0 - - - - - - - - -
01/08:30pm 14.3 - - - 1016.8 - - - - - - - - -
01/08:00pm 14.3 - - - 1016.5 - - - - - - - - -
01/07:30pm 14.2 - - - 1016.2 - - - - - - - - -
01/07:00pm 14.3 - - - 1015.9 - - - - - - - - -
01/06:30pm 14.7 - - - 1015.4 - - - - - - - - -
01/06:00pm 14.6 - - - 1015.2 - - - - - - - - -
01/05:30pm 14.2 - - - 1015.3 - - - - - - - - -
01/05:00pm 14.0 - - - 1015.2 - - - - - - - - -
01/04:30pm 14.4 - - - 1015.1 - - - - - - - - -
01/04:00pm 14.7 - - - 1014.7 - - - - - - - - -
01/03:30pm 15.2 - - - 1014.5 - - - - - - - - -
01/03:00pm 15.0 - - - 1014.5 - - - - - - - - -
01/02:30pm 14.7 - - - 1014.4 - - - - - - - - -
01/02:00pm 14.4 - - - 1014.3 - - - - - - - - -
01/01:30pm 14.6 - - - 1014.2 - - - - - - - - -
01/01:00pm 14.9 - - - 1014.2 - - - - - - - - -
01/12:30pm 14.6 - - - 1014.3 - - - - - - - - -
01/12:00pm 14.0 - - - 1014.4 - - - - - - - - -
01/11:30am 14.4 - - - 1014.2 - - - - - - - - -
01/11:00am 14.2 - - - 1014.2 - - - - - - - - -
01/10:30am 13.8 - - - 1014.1 - - - - - - - - -
01/10:00am 14.0 - - - 1013.9 - - - - - - - - -
01/09:30am 13.8 - - - 1013.7 - - - - - - - - -
01/09:00am 14.1 - - - 1013.4 - - - - - - - - -
01/08:30am 13.5 - - - 1013.1 - - - - - - - - -
01/08:00am 13.2 - - - 1012.7 - - - - - - - - -
01/07:30am 13.3 - - - 1012.4 - - - - - - - - -
01/07:00am 13.4 - - - 1012.1 - - - - - - - - -
01/06:30am 13.4 - - - 1011.7 - - - - - - - - -
01/06:00am 13.3 - - - 1011.6 - - - - - - - - -
01/05:30am 13.1 - - - 1011.4 - - - - - - - - -
01/05:00am 13.0 - - - 1011.2 - - - - - - - - -
01/04:30am 13.2 - - - 1011.1 - - - - - - - - -
01/04:00am 13.4 - - - 1011.2 - - - - - - - - -
01/03:30am 13.3 - - - 1011.2 - - - - - - - - -
01/03:00am 13.9 - - - 1011.2 - - - - - - - - -
01/02:30am 14.2 - - - 1011.2 - - - - - - - - -
01/02:00am 14.0 - - - 1011.4 - - - - - - - - -
01/01:30am 14.0 - - - 1011.5 - - - - - - - - -
01/01:00am 14.2 - - - 1011.6 - - - - - - - - -
01/12:30am 14.2 - - - 1011.7 - - - - - - - - -
01/12:00am 14.4 - - - 1011.7 - - - - - - - - -
 
Date/Time
EDT
Temp

°C
Wind Pressure Rain
since 9am
mm
Weather Cloud Vis
km
Sea
Height
m
Swell
Dir
 
Speed
knots
Gust
knots
hPa Trend Height
m
Period
s
Dir
31/11:30pm 14.8 - - - 1011.8 - - - - - - - - -
31/11:00pm 14.6 - - - 1011.8 - - - - - - - - -
31/10:30pm 14.7 - - - 1011.9 - - - - - - - - -
31/10:00pm 14.7 - - - 1011.8 - - - - - - - - -
31/09:30pm 14.8 - - - 1011.7 - - - - - - - - -
31/09:00pm 14.9 - - - 1011.4 - - - - - - - - -
31/08:30pm 14.9 - - - 1011.2 - - - - - - - - -
31/08:00pm 14.8 - - - 1011.0 - - - - - - - - -
31/07:30pm 14.7 - - - 1010.8 - - - - - - - - -
31/07:00pm 14.7 - - - 1010.5 - - - - - - - - -
31/06:30pm 15.0 - - - 1010.2 - - - - - - - - -
31/06:00pm 15.0 - - - 1010.0 - - - - - - - - -
31/05:30pm 15.0 - - - 1009.9 - - - - - - - - -
31/05:00pm 15.2 - - - 1009.8 - - - - - - - - -
31/04:30pm 15.3 - - - 1009.7 - - - - - - - - -
31/04:00pm 15.5 - - - 1009.5 - - - - - - - - -
31/03:30pm 15.6 - - - 1009.3 - - - - - - - - -
31/03:00pm 15.3 - - - 1009.4 - - - - - - - - -
31/02:30pm 15.2 - - - 1009.5 - - - - - - - - -
31/02:00pm 15.0 - - - 1009.6 - - - - - - - - -
31/01:30pm 14.9 - - - 1009.8 - - - - - - - - -
31/01:00pm 15.1 - - - 1009.8 - - - - - - - - -
31/12:30pm 15.3 - - - 1009.7 - - - - - - - - -
31/12:00pm 14.9 - - - 1010.1 - - - - - - - - -
31/11:30am 15.2 - - - 1010.1 - - - - - - - - -
31/11:00am 15.2 - - - 1010.1 - - - - - - - - -
31/10:30am 15.1 - - - 1010.1 - - - - - - - - -
31/10:00am 15.1 - - - 1010.1 - - - - - - - - -
31/09:30am 15.2 - - - 1010.2 - - - - - - - - -
31/09:00am 15.2 - - - 1010.2 - - - - - - - - -
31/08:30am 15.0 - - - 1010.1 - - - - - - - - -
31/08:00am 15.1 - - - 1010.0 - - - - - - - - -
31/07:30am 15.1 - - - 1009.9 - - - - - - - - -
31/07:00am 14.8 - - - 1009.8 - - - - - - - - -
31/06:30am 14.6 - - - 1009.9 - - - - - - - - -
31/06:00am 14.4 - - - 1009.7 - - - - - - - - -
31/05:30am 14.5 - - - 1009.6 - - - - - - - - -
31/05:00am 14.6 - - - 1009.4 - - - - - - - - -
31/04:30am 14.6 - - - 1009.5 - - - - - - - - -
31/04:00am 14.5 - - - 1009.9 - - - - - - - - -
31/03:30am 14.3 - - - 1010.1 - - - - - - - - -
31/03:00am 14.3 - - - 1010.5 - - - - - - - - -
31/02:30am 14.3 - - - 1010.7 - - - - - - - - -
31/02:00am 14.3 - - - 1011.1 - - - - - - - - -
31/01:30am 14.0 - - - 1011.4 - - - - - - - - -
31/01:00am 14.0 - - - 1011.7 - - - - - - - - -
31/12:30am 14.1 - - - 1011.7 - - - - - - - - -
31/12:00am 13.7 - - - 1012.1 - - - - - - - - -

Other Formats:

Comma delimited format used in spreadsheet applications
http://www.bom.gov.au/fwo/IDT60701/IDT60701.95987.axf

JavaScript Object Notation format (JSON) in row-major order
http://www.bom.gov.au/fwo/IDT60701/IDT60701.95987.json